Vertical_Velocity
3 1 3 -1 0 -1 -3 -1 -0 -3 -0 4 4 1 -1 -0 5 -0 -0 0 1 2 4 2 0 -1 -1 0 0 -2 -2 -1 -2 -5 -3 -2 -2 -2 -3 -3 -1 -3 -6 2
2 4 2 0 1 4 4 2 3 -0 1 -3 -2 -1 1 2 2 1 0 1 2 2 1 -1 -1 3 3 -1 -3 -2 -2 -3 -6 -4 -4 -3 -2 -0 0 0 -1 -1 1 -6
0 2 2 -2 -7 -2 1 1 7 2 4 -0 -0 1 1 -0 -1 -0 -1 -1 -1 -1 2 3 -0 -2 -6 -3 -2 2 -2 -6 -4 -1 -1 -1 -0 -0 -2 -1 -3 -3 -3 -5
-1 1 -2 -3 1 3 2 2 3 1 -1 1 3 3 1 -1 -1 -0 -0 1 3 2 -1 -3 -4 -3 -1 3 3 -0 -5 -4 -3 -2 -1 0 -0 -2 0 -3 -5 -5 -2 -1
-1 0 1 -1 -1 -2 -1 -1 -2 -1 1 2 2 2 1 1 3 0 1 1 -0 -1 -4 -2 -1 0 3 -1 -5 -4 -2 -0 -1 -2 -0 -3 -3 -2 0 -5 0 -3 -4 -6
-1 -1 -2 2 2 3 -1 -2 0 1 2 -0 -0 1 4 1 -1 -3 -3 -4 -4 -3 -0 4 5 -1 -3 -4 -2 1 1 1 -0 -3 -4 -1 -1 -2 -2 -3 -6 -7 -3 1
0 -1 -0 -1 1 -0 2 -3 -0 1 1 2 0 -1 -6 -5 -5 -2 -3 -3 -2 -2 -3 -4 -4 -3 -4 -1 -0 -2 1 3 0 -2 -3 -0 -1 -3 -4 -1 -1 -4 -4 1
2 -2 -7 0 3 2 1 -0 -0 -0 -1 -3 -3 -4 -2 -0 -2 -1 -1 -0 -1 -1 -2 -3 -0 -3 -1 -2 -2 2 2 -2 -1 -0 -0 -2 -5 -0 -1 -7 -6 -3 -6 -5
-5 2 -1 0 -0 1 0 1 -0 -2 -6 -5 -3 -2 -1 -1 -2 -3 -3 -3 -2 -2 -1 -1 -3 -1 0 -2 1 3 -0 -0 0 1 -1 -2 -4 -1 -3 -2 -3 -5 -7 -10
2 -2 -1 -1 -2 -3 -1 -1 -1 0 1 0 1 -2 -1 -1 -2 -1 -0 -0 1 -1 -1 0 -1 -2 -0 -1 -1 -2 -1 1 -1 -3 -5 -1 2 -1 -3 -1 -4 -4 -6 -9
-1 -1 -1 -1 0 1 -1 0 1 1 -0 -2 -0 1 -2 -3 -1 -1 -2 -2 -1 -1 1 1 0 1 -2 -2 -1 1 -1 -4 -4 -4 -4 -3 5 -3 -3 7 -1 -11 -4 -6
1 -0 0 2 1 1 1 2 2 2 1 -3 -4 -4 -1 -2 -2 -2 -1 -2 -1 -1 -0 1 2 -1 -3 -3 -5 -6 -4 -1 -2 -4 2 -1 -8 -8 18 -1 4 8 4 0
-1 2 2 1 -2 0 1 -0 -3 -4 -4 -2 -2 -3 -3 -2 -2 -2 -1 -0 0 2 1 -0 -1 1 -2 -2 -1 1 -4 -3 -2 0 -3 -9 -4 -4 -10 10 1 0 3 1
2 2 2 2 0 -0 -2 -3 -4 -3 -3 -3 -3 -3 -4 -2 -2 -1 -1 -0 1 1 -0 -2 -1 2 -1 1 -0 -0 -1 0 -5 -3 -4 -2 -1 -3 -3 -6 -9 -6 5 0
-1 -1 -0 -0 -1 -1 -1 -1 1 2 -0 -2 -2 -1 -0 0 0 1 2 0 0 -1 -3 -5 -0 4 0 -1 -4 -2 -2 -1 -2 -3 -1 -4 -5 -1 -1 -2 -2 -3 -4 5
-1 -3 -3 -2 -2 -2 0 1 -4 -7 -4 -3 -3 -2 -1 -0 -1 -2 -1 -1 -2 1 1 1 2 -1 -1 -3 -3 0 2 2 -1 -5 -3 -3 -3 -2 -2 -2 -2 -2 -1 -3
-2 -1 -1 -2 -1 -1 -4 -5 -4 -3 -4 -4 -2 -1 -1 -0 0 -0 -1 -2 -1 3 -2 -3 -2 -2 -3 -3 -4 -1 -1 0 -0 -2 -1 -3 -4 -2 -1 -1 -3 -5 -2 0
-0 -1 -1 -1 -2 -3 -3 -2 -2 -2 -2 -0 -1 -0 -0 -1 -1 -0 0 2 0 1 -3 -1 -4 -3 -2 -4 -3 -0 1 -0 -4 -5 -5 -4 -1 -1 -3 -0 1 -2 -2 -0
-3 -3 -2 -3 -5 -4 -3 -1 -1 -0 -0 -1 -1 -1 -0 0 -0 -0 -0 1 -1 -6 5 0 -1 -1 -1 2 -1 -1 0 -2 -1 -1 -3 -2 -0 0 -3 -2 -1 -1 -2 -2
-1 -2 -3 -1 -1 -2 -1 -1 -1 -2 -2 -1 1 1 0 -1 -0 -0 -2 2 -3 -9 -4 -1 -1 1 -1 0 0 0 -0 -1 -4 -4 -3 -2 -1 -0 -0 1 -0 0 -1 -1
-3 -2 -1 -1 -2 -4 -3 -3 -1 1 -1 1 0 0 1 1 -1 -3 1 -4 7 1 1 3 -0 0 -1 -2 1 -0 -3 -2 -2 -3 -3 -2 -2 -0 -1 -0 -1 0 -2 -1
-5 -4 -7 -7 -6 -3 -2 -1 -0 -1 -1 -0 -1 -1 -2 1 -1 -1 -0 -10 3 1 -1 1 -1 1 -3 -4 0 -0 -0 -0 -1 -2 -2 -1 -2 -1 -1 0 -1 -1 0 0
-4 -3 -3 -2 -3 -3 -3 -2 -3 -3 -1 -1 -1 -3 -3 -0 2 -1 4 12 3 2 -1 -1 -2 -1 -2 -2 -2 -1 0 -1 -3 -2 -0 -1 -2 -1 -0 0 -1 -2 -2 -2
-1 -1 -2 -3 -3 -3 -2 -2 1 2 2 1 -0 0 0 1 9 -2 -4 -4 -4 -4 -1 -3 -3 -3 -2 -0 -0 1 -1 -2 -2 -1 -1 1 2 0 -0 -2 -2 -1 -1 -1
-0 -1 -3 -3 -2 -1 -2 -1 0 1 2 2 3 0 0 -2 -7 4 2 2 1 -2 -0 2 -0 -2 -2 -2 -1 1 -2 -2 -1 -2 -4 -3 -1 1 1 -2 -2 -2 -0 -1
-1 -1 -2 -2 -0 -1 0 1 2 1 1 3 4 1 2 -0 -2 -3 -1 -2 -2 -1 -2 -3 -2 -2 -2 -1 -1 -0 -2 -1 -0 2 -1 -1 -1 1 -0 -2 -2 -1 -1 0
1 0 -1 -0 -1 1 0 2 2 2 1 -0 5 2 2 1 1 -1 -2 -2 -3 -2 -2 -1 -1 1 -1 -1 -0 0 -0 -0 0 -4 -1 -1 -0 -1 -1 -1 0 0 -0 -1
Height
3056 3059 3061 3063 3065 3068 3069 3072 3073 3073 3074 3076 3076 3075 3076 3075 3074 3073 3071 3071 3069 3067 3065 3062 3058 3054 3050 3045 3041 3037 3033 3028 3022 3016 3008 3001 2996 2990 2985 2979 2972 2966 2960 2955
3054 3055 3057 3058 3060 3063 3066 3067 3068 3069 3069 3071 3070 3070 3070 3070 3069 3068 3067 3066 3064 3062 3059 3055 3051 3047 3042 3038 3033 3029 3025 3019 3013 3005 2999 2993 2986 2981 2976 2970 2963 2957 2950 2943
3052 3053 3055 3057 3055 3058 3060 3061 3063 3064 3066 3065 3065 3066 3066 3065 3064 3063 3061 3060 3058 3055 3051 3047 3043 3040 3036 3031 3026 3021 3015 3009 3002 2995 2990 2984 2978 2972 2967 2960 2953 2946 2939 2931
3050 3052 3056 3050 3051 3053 3054 3054 3056 3057 3059 3060 3060 3060 3060 3059 3058 3057 3055 3053 3050 3047 3044 3041 3037 3032 3027 3022 3016 3011 3005 2999 2992 2986 2981 2975 2970 2964 2958 2950 2942 2934 2927 2918
3048 3047 3047 3046 3047 3050 3049 3052 3052 3053 3055 3055 3055 3056 3055 3054 3052 3050 3049 3046 3043 3040 3037 3033 3028 3023 3019 3014 3008 3001 2995 2990 2984 2978 2973 2968 2962 2955 2947 2939 2931 2923 2914 2906
3043 3044 3044 3042 3043 3045 3046 3048 3048 3049 3050 3051 3051 3050 3050 3048 3047 3044 3041 3037 3034 3031 3028 3024 3020 3015 3010 3004 2998 2993 2988 2982 2976 2970 2965 2959 2951 2944 2937 2927 2919 2911 2903 2896
3040 3041 3040 3040 3041 3042 3046 3047 3044 3045 3046 3046 3046 3046 3044 3041 3037 3034 3032 3029 3026 3022 3019 3015 3010 3005 2999 2994 2989 2985 2980 2974 2969 2962 2956 2949 2942 2933 2926 2917 2908 2901 2893 2886
3037 3038 3038 3035 3037 3041 3040 3040 3041 3042 3042 3043 3042 3038 3035 3032 3029 3025 3023 3020 3017 3014 3010 3005 3000 2994 2990 2985 2981 2977 2972 2966 2960 2954 2947 2940 2932 2925 2916 2906 2897 2890 2882 2875
3034 3033 3032 3032 3034 3035 3036 3037 3038 3038 3036 3034 3032 3029 3026 3024 3021 3018 3016 3013 3009 3005 3001 2996 2991 2986 2982 2978 2973 2969 2964 2958 2952 2945 2939 2932 2923 2914 2904 2896 2886 2878 2870 2862
3029 3028 3029 3030 3031 3032 3033 3033 3032 3031 3029 3027 3024 3022 3020 3017 3014 3011 3008 3005 3002 2998 2993 2988 2983 2979 2973 2969 2965 2960 2955 2949 2943 2937 2930 2922 2912 2903 2894 2886 2877 2869 2860 2850
3022 3024 3025 3025 3026 3027 3027 3027 3026 3024 3022 3020 3018 3016 3012 3009 3006 3004 3001 2997 2993 2989 2984 2979 2976 2972 2967 2962 2957 2952 2947 2941 2934 2927 2918 2909 2903 2895 2886 2879 2868 2857 2850 2842
3017 3018 3021 3022 3022 3022 3021 3020 3019 3017 3016 3014 3011 3008 3005 3003 2999 2996 2992 2989 2985 2981 2976 2973 2970 2967 2961 2955 2950 2944 2937 2931 2923 2914 2907 2900 2891 2884 2880 2869 2863 2855 2844 2836
3011 3013 3015 3016 3016 3016 3015 3014 3013 3012 3009 3007 3005 3002 2999 2995 2991 2987 2984 2980 2977 2973 2969 2967 2964 2959 2952 2947 2941 2935 2927 2920 2912 2905 2898 2890 2881 2872 2862 2858 2850 2847 2838 2830
3008 3009 3010 3010 3009 3009 3008 3007 3006 3005 3003 3001 2998 2994 2989 2986 2983 2979 2975 2973 2970 2967 2964 2960 2956 2952 2945 2940 2933 2925 2918 2911 2903 2896 2888 2880 2871 2862 2853 2845 2837 2833 2831 2824
3004 3005 3006 3005 3004 3004 3003 3002 3001 3000 2997 2993 2989 2985 2982 2977 2973 2970 2968 2967 2965 2962 2957 2952 2948 2944 2937 2930 2922 2915 2908 2901 2893 2885 2878 2870 2862 2854 2846 2838 2831 2825 2820 2816
2999 2999 2999 2999 2999 2998 2998 2997 2995 2992 2988 2984 2980 2977 2973 2970 2968 2966 2964 2961 2958 2954 2950 2944 2939 2932 2926 2920 2912 2905 2899 2892 2884 2876 2868 2860 2853 2846 2838 2832 2825 2819 2813 2806
2993 2994 2994 2994 2994 2993 2992 2990 2987 2983 2979 2976 2973 2970 2968 2965 2963 2960 2957 2953 2949 2945 2939 2933 2929 2923 2917 2910 2903 2897 2890 2882 2875 2867 2860 2853 2845 2838 2832 2825 2818 2811 2805 2799
2988 2989 2990 2990 2989 2987 2984 2981 2978 2975 2973 2970 2967 2964 2962 2959 2956 2953 2949 2946 2942 2936 2932 2927 2921 2915 2908 2901 2893 2887 2880 2872 2865 2858 2852 2845 2838 2832 2824 2817 2811 2804 2798 2792
2985 2986 2986 2985 2983 2980 2977 2974 2971 2968 2965 2963 2960 2958 2955 2951 2948 2945 2941 2937 2933 2927 2924 2919 2912 2906 2899 2892 2884 2877 2870 2863 2857 2851 2844 2837 2831 2824 2817 2810 2804 2797 2790 2784
2980 2980 2979 2977 2974 2971 2968 2965 2963 2960 2958 2956 2953 2950 2948 2945 2941 2937 2933 2929 2925 2918 2913 2907 2901 2894 2887 2881 2874 2868 2861 2854 2847 2841 2835 2829 2823 2816 2810 2804 2796 2790 2784 2778
2973 2972 2971 2969 2967 2963 2961 2958 2955 2952 2950 2948 2946 2943 2940 2937 2933 2929 2925 2920 2916 2909 2903 2898 2892 2885 2878 2872 2865 2858 2851 2845 2839 2833 2827 2821 2815 2808 2802 2795 2789 2783 2777 2772
2967 2966 2963 2960 2957 2955 2951 2949 2947 2944 2942 2940 2938 2935 2932 2929 2924 2920 2915 2910 2905 2899 2893 2888 2882 2876 2868 2861 2855 2849 2843 2837 2831 2825 2819 2813 2807 2800 2794 2788 2782 2777 2772 2767
2958 2956 2953 2950 2948 2946 2943 2941 2938 2936 2933 2931 2929 2926 2922 2919 2914 2910 2906 2902 2895 2890 2884 2878 2871 2865 2858 2851 2845 2840 2834 2829 2823 2816 2811 2805 2799 2792 2786 2781 2776 2771 2766 2762
2949 2947 2944 2942 2939 2937 2934 2931 2928 2926 2924 2921 2919 2916 2913 2909 2906 2901 2895 2890 2884 2878 2872 2867 2860 2854 2847 2841 2836 2830 2825 2820 2814 2808 2802 2797 2791 2785 2779 2774 2770 2766 2762 2758
2940 2937 2935 2932 2930 2928 2925 2922 2920 2917 2915 2913 2911 2907 2903 2899 2895 2890 2885 2880 2874 2868 2862 2857 2850 2844 2838 2832 2827 2822 2817 2811 2805 2798 2793 2787 2782 2777 2773 2769 2765 2762 2758 2755
2930 2927 2925 2923 2920 2918 2915 2913 2911 2909 2907 2905 2902 2898 2894 2890 2885 2881 2875 2870 2864 2858 2851 2845 2839 2833 2827 2822 2817 2812 2807 2801 2796 2791 2785 2780 2775 2771 2767 2764 2760 2757 2754 2751
2921 2918 2916 2914 2911 2909 2907 2905 2902 2900 2898 2895 2892 2889 2885 2881 2876 2871 2865 2860 2853 2847 2840 2834 2829 2824 2818 2813 2808 2802 2798 2793 2788 2781 2776 2772 2768 2764 2761 2759 2756 2753 2750 2747